Tracking 30260 objects as of 15-Feb-2025
HD Live streaming from Space Station
objects crossing your sky now

STARLINK-32717

Track STARLINK-32717 now!
10-day predictions
STARLINK-32717 is classified as:


NORAD ID: 62491
Int'l Code: 2025-003E
Perigee: 449.7 km
Apogee: 452.6 km
Inclination: 43.0 °
Period: 93.5 minutes
Semi major axis: 6822 km
RCS: Unknown
Launch date: January 6, 2025
Source: United States (US)
Launch site: AIR FORCE EASTERN TEST RANGE (AFETR)
Your satellite tracking list
Your tracking list is empty




NASA's NSSDC Master Catalog

Two Line Element Set (TLE):
1 62491U 25003E   25045.14661877  .00002095  00000-0  57401-4 0  9995
2 62491  43.0010 326.3187 0002162 287.9729  72.0892 15.40703519  7210
Source of the keplerian elements: AFSPC